Regional Weather Roundup
Issued by NWS

Home | Current Version | Previous Version | Graphics & Text | Print | Product List | Glossary On
Versions: 1 2 3 4 5 6 7 8 9 10 11 12 13 14 15 16 17 18 19 20 21 22 23 24 25 26 27
000
ASUS45 KGTF 280710
RWRMT
MONTANA HOURLY WEATHER ROUNDUP
NATIONAL WEATHER SERVICE GREAT FALLS MT
100 AM MDT TUE APR 28 2015

NOTE: "FAIR" INDICATES FEW OR NO CLOUDS BELOW 12000 FEET WITH NO
SIGNIFICANT WEATHER AND/OR OBSTRUCTIONS TO VISIBILITY.

MTZ001>007-043-280800-
WEST OF THE DIVIDE

CITY           SKY/WX    TMP DP  RH WIND       PRES   REMARKS
KALISPELL      SUNNY     35  31  85 W3        30.21S
MISSOULA       PTCLDY    44  33  65 N3        30.25R
BUTTE          PTCLDY    34  30  85 SE5       30.30F
DEER LODGE       N/A     36  28  75 CALM      30.32S
EUREKA           N/A     46  32  57 SE3       30.21S
HAMILTON         N/A     43  32  65 S7        30.24F
LIBBY            N/A     43  34  70 CALM      30.22S
$$

MTZ008-052>055-280800-
SOUTHWEST MONTANA

CITY           SKY/WX    TMP DP  RH WIND       PRES   REMARKS
BOZEMAN        CLEAR     34  30  85 S7        30.28S WCI  28
DILLON         PTCLDY    41  32  70 S7        30.28S
$$

MTZ009-010-012-014-046-048-049-054-280800-
EAST SLOPES AND CENTRAL MONTANA

CITY           SKY/WX    TMP DP  RH WIND       PRES   REMARKS
CUT BANK       CLEAR     39  27  62 N5        30.18S
GREAT FALLS    CLEAR     43  32  65 S10       30.20S
MALMSTROM AFB  CLEAR     42  34  73 S9        30.21S
HELENA         CLEAR     43  31  62 N3        30.25S
$$

MTZ011-013-016-021-045-047-050-051-280800-
NORTH CENTRAL MONTANA

CITY           SKY/WX    TMP DP  RH WIND       PRES   REMARKS
HAVRE          CLEAR     48  31  51 S6        30.18S
LEWISTOWN      CLEAR     40  31  70 SE8       30.25F
CHINOOK          N/A     48  30  49 CALM      30.19F
FORT BENTON      N/A     46  30  53 W3        30.20S
$$

MTZ017>020-022>042-056>058-061-062-280800-
EASTERN PLAINS

CITY           SKY/WX    TMP DP  RH WIND       PRES   REMARKS
BAKER          CLEAR     32  30  92 CALM      30.34S
BILLINGS       CLEAR     48  34  58 S7        30.28S
GLASGOW        CLEAR     40  35  83 SE10      30.27F
JORDAN           N/A     41  35  79 CALM      30.29S
LIVINGSTON     CLEAR     34  29  82 VRB5      30.28F
MILES CITY     CLEAR     38  35  89 SE8       30.33S
SIDNEY         CLEAR     37  34  87 S3        30.32S
WOLF POINT     CLEAR     37  33  85 W6        30.30S
BIG TIMBER       N/A     43  30  61 SW6       30.29S
FORSYTH          N/A     43  36  75 SE7       30.31S
PLENTYWOOD       N/A     45  34  65 SE3       30.28S
POPLAR           N/A     41  37  87 CALM      30.30F
$$

REGIONAL REPORTS...DAKOTAS

CITY           SKY/WX    TMP DP  RH WIND       PRES   REMARKS
WILLISTON      CLEAR     40  35  83 S3        30.30S
MINOT          CLEAR     41  36  82 SW10      30.28S
DICKINSON      CLEAR     35  32  88 W6        30.31S WCI  30
BEACH          CLOUDY    34  34 100 SW3       30.34S
CROSBY         FAIR      39  39 100 SW10      30.28S
WATFORD CITY   FAIR      36  36 100 SW6       30.30S WCI  31
BISMARCK       CLEAR     37  35  92 W6        30.33R
GRAND FORKS    MOCLDY    40  39  97 NW5       30.26S
FARGO          LGT RAIN  48  44  86 N13       30.23F
BUFFALO SD       N/A     38  35  89 W6        30.27S
RAPID CITY     CLOUDY    42  38  85 N5        30.34F
$$

REGIONAL REPORTS...WYOMING/IDAHO/WASHINGTON

CITY           SKY/WX    TMP DP  RH WIND       PRES   REMARKS
GILLETTE       PTCLDY    37  32  82 S3        30.32S
SHERIDAN       CLEAR     33  30  88 CALM      30.31S
BUFFALO WY     CLEAR     37  31  78 W7        30.32S WCI  32
CODY           CLEAR     41  36  81 CALM      30.31S
YELLOWSTONE LA   N/A     27  22  81 CALM      30.38R
IDAHO FALLS    CLEAR     38  31  76 W5        30.28R
SALMON         CLEAR     39  34  81 CALM      30.27R
BOISE          CLEAR     51  30  44 SE7       30.20S
SPOKANE        CLOUDY    53  35  50 NE6       30.16S
$$

REGIONAL REPORTS...ALBERTA

CITY           SKY/WX    TMP DP  RH WIND       PRES   REMARKS
EDMONTON       CLEAR     48  28  46 S6        30.02S
CALGARY        PTCLDY    46  27  46 VRB2      30.11S
LETHBRIDGE     CLEAR     43  32  65 SW9G18    30.13R
MEDICINE HAT   CLEAR     45  28  53 S6        30.13F
$$

REGIONAL REPORTS...SASKATCHEWAN

CITY           SKY/WX    TMP DP  RH WIND       PRES   REMARKS
SWIFT CURRENT  CLEAR     46  30  53 S22G29    30.16S
REGINA         PTCLDY    43  34  70 S8        30.22F
SASKATOON      CLOUDY    41  34  75 S9        30.14S
$$



USA.gov is the U.S. government's official web portal to all federal, state and local government web resources and services.